Theta_e
325 328 327 327 327 325 323 322 319 321 322 321 317 315 319 322 315 313 323 327 324 327 333 333 333 334 333 334 334 332 332 339 352 362 361 355 353 355 356 358 360 361 363 365 366 365 365 365 364 364 363 362 363 363 363 363 361 361 363 365 365 365 362 361 359 358 358 355 353 352 351 352 350 352 355 346 334 333 335 334 335 336 336 337 337 337 336
325 327 327 327 326 324 323 323 323 324 323 322 320 320 322 322 319 321 326 327 328 332 332 331 332 333 333 333 333 331 330 336 350 359 358 353 352 353 355 358 360 361 362 364 364 364 365 365 364 364 363 363 364 363 363 363 362 362 364 365 366 364 362 360 357 356 357 355 353 352 351 351 351 352 354 349 341 337 333 332 336 337 337 339 340 340 336
321 326 328 326 326 324 321 321 325 325 323 322 321 321 323 323 321 324 325 324 328 332 333 332 331 333 333 332 332 334 334 336 345 353 354 352 351 352 354 358 359 360 361 362 363 363 363 364 365 364 364 364 364 363 363 363 363 363 364 366 365 363 361 359 356 355 356 354 353 352 351 351 352 353 352 349 345 340 335 335 338 338 338 340 342 341 339
317 324 326 325 325 323 319 318 322 324 322 321 321 323 324 322 321 323 320 318 324 331 331 331 332 331 331 333 334 335 338 341 346 351 353 354 354 354 355 358 359 359 360 362 363 362 362 364 365 365 365 365 364 363 362 363 363 363 365 366 364 362 361 358 356 355 354 354 353 352 352 352 351 352 352 349 346 343 340 338 339 340 340 341 342 342 341
316 321 324 322 321 318 315 317 323 325 324 324 323 324 326 326 324 322 318 320 327 331 329 331 333 330 329 335 338 339 345 351 352 353 353 354 355 356 357 358 359 358 358 360 361 362 362 364 364 364 364 365 364 363 362 363 363 363 365 365 363 362 360 358 356 355 354 353 353 352 353 353 351 351 351 349 347 346 344 341 340 340 337 337 341 343 341
317 320 323 322 319 314 316 323 327 327 326 326 324 324 326 326 326 325 324 327 331 332 330 332 333 332 333 338 342 344 349 354 357 356 354 353 354 355 355 356 357 358 358 359 360 361 361 362 363 362 363 364 364 363 361 362 363 364 365 365 362 361 360 358 356 355 354 354 352 352 353 353 352 352 351 350 348 345 344 343 343 341 335 336 342 342 340
320 320 322 319 316 318 325 332 332 329 328 327 326 327 328 327 327 327 328 330 330 330 332 333 332 334 336 339 345 349 349 351 354 354 354 356 356 355 356 357 357 358 358 358 359 360 359 359 359 361 362 363 363 362 362 362 364 364 365 364 362 360 359 357 356 354 354 353 352 352 352 353 353 352 351 351 348 345 345 345 344 343 340 341 344 343 341
324 322 320 319 321 325 329 334 335 333 332 330 326 324 326 327 328 328 329 330 329 330 333 331 331 337 342 343 348 351 348 346 346 344 346 352 352 353 356 357 357 358 358 358 360 361 359 358 359 361 361 361 361 362 362 363 364 365 365 364 362 359 358 357 355 353 353 352 352 352 352 353 353 352 351 350 346 345 344 343 343 343 343 342 343 343 343
328 322 317 320 323 324 329 337 340 339 338 338 333 328 329 330 328 328 329 330 328 329 331 331 335 342 342 342 341 341 342 343 342 340 340 344 350 353 353 354 356 358 358 359 361 361 359 359 359 360 360 360 360 362 362 363 363 363 363 363 361 359 358 356 354 353 352 352 352 352 352 353 352 351 351 349 346 343 341 340 341 343 342 342 343 343 343
328 323 321 323 320 320 329 339 341 339 336 339 340 334 333 334 330 328 329 331 331 332 330 332 340 343 340 337 335 334 337 341 342 340 340 341 346 349 350 353 357 359 359 360 360 359 358 358 357 358 358 359 361 362 361 361 362 362 362 363 361 360 358 356 353 352 352 351 351 352 352 353 352 352 351 349 346 344 341 341 342 342 341 342 344 343 342
324 323 325 325 320 324 339 342 339 338 335 337 339 330 327 334 338 334 329 329 333 334 332 336 345 343 336 333 334 336 340 340 341 342 343 344 346 350 354 356 358 358 359 358 357 357 357 357 358 358 359 360 361 362 361 361 361 362 362 362 361 360 358 355 353 352 352 351 351 352 352 353 352 351 349 347 346 345 343 341 341 342 341 341 343 343 342
322 323 324 323 322 332 344 340 336 337 336 338 335 323 325 340 348 344 341 338 335 333 334 343 346 341 335 334 338 341 342 341 341 345 347 348 350 353 354 354 355 358 359 357 357 358 360 361 361 360 360 361 362 362 362 362 362 362 362 361 361 359 357 355 353 352 352 351 351 351 352 352 350 349 347 345 344 344 342 339 339 341 341 340 342 343 341
322 323 322 322 327 338 343 338 337 337 335 335 330 325 333 347 347 343 344 344 342 340 343 345 344 341 340 343 343 342 342 344 346 347 348 349 351 351 352 355 358 359 359 359 360 363 365 364 362 361 362 363 364 363 363 362 362 362 361 361 360 358 356 354 353 352 352 351 351 351 351 350 349 347 346 345 344 344 342 340 340 342 342 342 342 340 337
321 322 323 323 328 338 341 337 337 337 334 332 332 336 343 346 344 344 344 341 342 345 346 345 343 342 344 344 345 345 347 350 352 352 351 353 356 357 358 359 359 359 361 363 363 365 365 364 363 364 364 365 365 365 363 363 363 363 361 360 358 356 354 354 353 352 352 351 350 350 350 349 347 346 344 344 343 343 343 343 342 343 343 343 341 338 336
322 322 324 324 328 336 339 337 338 340 338 337 339 343 346 344 344 347 347 344 343 344 345 346 346 347 349 351 352 354 354 356 356 356 357 357 358 359 359 359 359 360 362 363 362 363 363 363 364 365 365 365 364 363 363 363 363 362 360 358 357 355 354 354 353 352 351 350 350 349 349 347 346 345 344 343 343 343 344 344 343 343 344 343 341 340 339
322 319 324 329 334 338 338 337 339 341 339 338 340 342 345 345 345 347 350 350 348 347 351 353 352 354 357 357 357 357 356 356 356 356 357 356 355 356 357 358 359 359 360 360 360 361 361 362 362 362 363 362 362 362 363 363 361 360 360 357 355 354 353 353 353 352 351 349 349 348 347 346 345 343 342 343 343 342 343 343 342 343 344 343 341 341 339
328 326 331 338 341 340 337 337 339 338 335 335 336 339 341 343 344 346 349 352 351 352 355 356 356 357 357 356 356 356 356 357 357 356 356 356 356 357 358 359 358 358 359 359 358 358 359 360 360 361 360 360 361 363 362 359 358 358 358 356 355 353 353 352 352 351 350 349 348 347 346 344 344 343 343 343 343 342 342 342 342 343 343 342 341 341 340
337 337 340 342 341 340 337 335 335 333 332 332 334 337 339 340 342 344 345 347 349 350 352 354 355 356 354 354 356 356 358 358 359 359 358 358 358 360 360 361 360 358 358 358 357 356 356 356 357 358 358 360 361 360 356 354 354 356 355 354 353 351 352 352 350 349 349 348 347 346 345 344 344 343 343 343 342 341 341 342 343 343 340 338 339 340 340
333 336 340 341 340 341 338 335 334 332 331 332 332 335 338 338 339 340 342 343 344 344 345 348 349 349 350 353 354 354 356 357 357 357 358 357 358 360 361 361 360 359 358 357 356 354 353 352 354 355 355 356 356 353 351 352 352 352 352 351 350 350 350 350 349 349 348 348 347 346 345 345 344 342 342 342 342 341 341 342 342 341 338 337 340 340 340
337 339 343 341 339 337 334 333 333 333 331 331 331 333 335 335 336 338 339 340 341 343 344 345 344 343 344 348 350 351 352 354 355 356 357 357 358 360 362 362 361 361 360 358 355 354 352 352 352 352 352 351 350 349 350 349 349 350 350 348 348 348 348 348 348 348 348 347 346 345 345 344 343 342 341 341 341 340 340 341 341 339 338 339 340 340 340
340 341 341 340 339 337 332 330 330 330 330 331 331 332 332 333 335 336 337 337 338 341 343 345 347 346 345 345 345 346 348 350 352 353 354 356 358 359 360 361 362 361 361 359 357 355 354 352 351 350 349 348 347 347 347 347 348 349 348 347 347 347 346 346 346 346 346 346 345 345 344 342 339 338 337 339 341 340 340 340 339 338 339 341 340 339 339
339 340 340 339 341 341 335 331 330 329 329 330 331 331 331 332 333 335 335 335 335 335 337 341 346 348 348 347 346 346 348 350 351 352 353 354 356 357 357 357 359 359 359 358 358 356 354 353 351 349 348 347 346 346 346 347 348 348 347 346 346 345 344 344 344 344 344 344 344 344 342 339 336 332 332 335 339 338 337 337 338 338 339 341 340 338 336
335 335 337 337 338 337 333 331 331 330 329 329 330 330 330 330 331 332 332 333 333 333 332 334 338 342 344 344 345 346 348 349 351 352 352 352 352 353 353 354 357 357 357 357 357 356 355 353 351 349 348 347 346 346 345 346 347 346 345 345 344 343 343 343 343 343 343 343 343 342 340 337 334 331 331 334 336 336 336 336 336 336 337 338 337 336 335
331 331 332 334 333 331 329 329 330 330 329 328 328 329 329 328 328 329 330 330 330 331 331 331 332 335 337 338 340 343 345 346 349 351 351 350 349 349 350 352 354 355 356 356 356 355 354 352 351 349 348 346 345 345 344 345 345 345 344 344 343 342 343 343 342 343 342 341 341 339 337 336 334 332 332 332 331 331 333 334 334 334 334 335 335 334 334
330 329 330 330 329 328 327 327 328 329 328 328 328 329 329 328 326 326 328 329 328 328 329 330 331 333 333 333 335 337 339 340 344 347 348 348 348 347 347 349 351 352 353 353 353 353 353 352 350 349 348 346 345 344 343 344 344 344 344 344 344 343 343 342 341 341 340 339 338 337 336 335 334 333 334 333 331 329 329 330 331 333 333 333 332 331 330
329 329 328 327 327 327 327 327 326 327 328 328 328 328 328 328 327 325 326 327 327 327 327 327 329 331 332 332 332 334 334 334 336 340 343 345 346 346 346 347 349 350 350 351 352 352 351 350 349 348 347 345 344 344 344 344 344 343 343 344 343 342 341 341 340 340 339 338 338 337 336 335 335 336 336 336 335 332 329 329 329 330 329 328 327 325 324
326 327 328 329 329 327 328 328 327 326 326 327 327 327 328 328 328 327 326 327 328 328 328 327 328 329 330 330 331 331 332 331 332 334 336 339 342 344 345 346 347 347 348 350 350 349 348 349 348 347 346 345 344 344 343 344 344 343 343 342 341 340 339 339 339 338 338 338 338 338 337 337 337 337 337 336 334 333 331 330 329 327 325 322 321 321 321
323 323 325 327 327 325 324 325 325 325 325 325 325 324 325 325 325 326 325 325 326 327 327 327 327 327 328 329 329 329 329 330 331 331 332 333 336 340 343 346 346 346 347 348 349 348 349 349 348 347 346 344 343 341 341 343 343 343 342 341 340 338 337 337 337 337 337 338 339 338 338 338 337 336 336 337 335 333 332 332 331 329 326 322 320 319 319
321 320 321 322 323 323 323 324 325 325 325 325 324 323 322 322 323 325 325 324 324 324 325 326 326 326 326 327 328 328 328 328 330 330 331 332 333 335 339 343 344 345 346 347 347 348 349 349 348 346 344 342 340 339 339 340 341 340 338 338 336 335 335 335 336 338 340 340 340 339 338 338 338 337 337 337 336 334 334 334 333 331 328 324 321 319 319
318 318 318 320 321 322 322 322 322 323 324 324 323 323 322 322 322 324 324 324 325 325 326 326 327 327 327 327 327 327 326 327 328 329 330 331 332 333 335 339 341 343 345 346 347 347 347 347 346 344 341 340 339 337 336 336 336 335 334 334 333 335 335 335 336 338 340 340 340 339 337 338 339 338 337 336 335 334 333 333 332 330 329 326 324 324 323
317 317 318 320 321 321 321 321 321 321 323 325 325 325 324 323 323 324 325 325 325 326 327 327 327 328 328 328 328 328 327 327 327 328 329 330 332 333 334 335 337 339 343 345 346 345 345 345 344 341 339 337 337 336 335 334 333 333 333 333 334 335 336 336 337 338 339 339 339 338 337 337 338 336 335 334 333 333 332 331 330 329 328 327 326 327 326
320 319 319 321 322 322 322 323 323 323 324 326 326 326 326 325 325 325 325 325 325 326 327 327 328 329 330 330 330 329 328 329 328 329 330 332 333 334 334 335 336 338 340 342 344 344 342 342 342 340 338 338 337 336 335 334 335 334 334 334 335 334 332 332 335 338 338 338 337 337 336 336 336 334 334 333 332 331 330 329 329 328 328 327 326 327 326
322 322 322 323 324 324 324 324 325 325 326 326 326 326 327 326 325 325 325 326 326 326 326 327 329 330 330 331 330 329 329 330 330 331 332 333 333 334 334 334 336 338 339 340 341 341 341 340 341 339 338 338 337 335 334 334 335 335 333 334 335 334 332 332 335 336 335 334 335 335 335 334 334 333 332 331 330 329 328 327 327 327 326 326 326 326 325
323 324 323 323 324 325 325 325 325 325 325 325 325 325 325 325 325 325 325 325 325 324 325 327 328 329 329 329 329 329 329 329 329 330 331 331 331 331 332 333 335 337 337 337 338 338 338 339 340 339 336 335 334 332 333 334 334 333 332 333 335 335 334 334 334 333 333 333 334 334 333 332 332 331 329 328 328 327 326 326 326 325 325 325 325 325 324
323 323 323 323 323 324 324 324 324 324 323 323 323 323 324 325 325 325 325 324 324 324 325 325 326 327 327 328 328 328 328 328 328 328 329 329 329 329 330 332 334 335 335 334 334 334 335 337 338 338 336 334 332 331 332 333 333 333 333 334 335 335 334 333 332 332 333 333 333 332 332 331 330 328 327 327 326 325 325 325 325 325 325 325 325 324 322
324 324 324 324 324 323 323 323 323 323 322 323 322 322 323 324 325 324 324 323 323 324 324 324 325 325 326 326 327 327 327 327 327 327 328 329 329 329 329 330 331 332 333 332 331 332 333 334 334 335 336 335 334 333 333 333 333 335 335 335 335 334 333 332 332 332 332 332 332 331 331 329 327 327 326 325 325 325 325 325 325 324 324 323 323 322 321
325 324 324 324 324 324 324 323 324 323 323 323 323 322 323 323 323 323 323 323 323 324 324 323 324 325 325 325 325 325 326 326 326 327 328 329 329 329 329 330 330 330 331 331 331 332 333 333 331 332 335 335 334 334 334 333 334 335 335 334 333 332 331 332 332 331 331 331 331 330 328 327 326 326 325 325 324 325 325 324 324 323 323 322 322 321 321
324 324 324 324 324 324 324 323 323 323 323 322 322 322 322 322 323 323 323 323 324 324 324 324 324 324 325 325 325 325 325 325 325 326 328 329 329 329 329 329 329 330 330 330 331 332 332 331 330 332 334 334 333 333 331 331 332 333 332 332 331 331 331 331 331 331 331 330 328 327 326 326 325 325 325 324 324 324 323 323 323 322 322 321 321 320 320
322 322 323 323 323 324 323 323 323 323 322 321 322 322 322 322 322 323 323 324 324 324 324 324 324 324 325 325 325 325 325 325 325 326 327 328 328 329 328 328 328 328 328 328 330 331 330 330 331 332 331 331 332 331 329 328 330 331 330 330 329 329 329 331 330 329 328 327 326 326 325 325 324 324 324 324 323 323 322 322 321 320 320 320 319 318 318
320 321 322 322 322 322 322 322 322 322 321 321 322 322 322 322 322 323 323 324 324 324 324 324 324 324 324 325 325 325 325 325 325 326 326 327 327 328 328 328 328 328 327 328 329 329 328 328 329 329 329 329 331 330 328 328 328 328 328 328 329 328 329 330 329 327 326 326 325 324 324 323 323 323 322 322 321 321 320 319 318 318 317 317 316 316 316
321 322 322 322 322 322 322 322 321 321 321 322 322 322 322 322 322 323 323 323 324 324 324 324 325 324 324 324 324 325 325 325 325 326 326 326 327 326 326 327 328 328 328 328 328 327 326 327 327 328 328 329 330 329 328 327 327 327 327 328 328 328 328 328 327 325 325 324 323 322 322 321 321 320 319 319 319 318 317 317 317 317 316 316 316 316 315
321 322 322 321 322 322 322 322 322 322 322 322 322 322 322 322 322 323 323 323 323 323 323 324 324 324 324 323 323 324 324 325 325 325 326 327 327 326 325 326 328 328 327 327 327 326 326 326 327 327 328 329 329 328 327 327 328 327 327 327 327 327 326 325 324 323 323 322 321 320 320 319 319 318 317 317 317 317 317 317 317 316 316 316 316 316 316
321 321 320 321 322 322 322 321 321 321 321 321 321 321 321 321 321 322 322 322 322 323 323 323 323 324 324 324 324 324 324 324 324 325 325 325 326 326 325 325 327 327 326 326 326 325 325 325 325 324 325 326 326 324 325 326 326 326 326 326 325 325 324 323 322 321 321 320 320 319 318 318 318 318 318 318 317 317 317 316 316 316 316 315 315 315 315
321 321 320 321 321 321 320 319 319 319 320 320 320 320 320 320 320 321 321 321 321 321 322 322 321 321 322 322 323 324 324 324 324 324 324 323 324 325 324 325 325 325 325 325 325 324 324 325 323 321 321 322 322 322 324 326 326 325 325 325 324 323 323 322 321 320 320 319 319 319 319 318 318 318 317 317 317 316 315 315 315 314 314 313 313 313 313
320 320 320 320 320 319 319 318 318 318 318 318 318 318 318 319 319 318 318 319 318 318 319 319 319 319 319 319 320 322 322 323 323 323 323 322 322 323 323 325 325 325 324 325 325 325 325 323 321 320 320 320 320 321 323 324 323 323 324 323 323 322 322 321 321 320 320 320 319 319 319 318 317 316 316 315 315 314 314 314 313 313 313 312 312 312 311
320 320 320 320 319 319 319 319 319 318 317 316 315 316 317 317 317 316 317 317 317 316 317 317 317 317 317 317 317 318 319 320 322 322 322 322 323 322 322 324 326 325 324 324 326 326 325 322 319 319 319 319 319 320 320 320 320 320 320 320 320 321 320 320 320 319 319 319 318 318 317 316 315 315 314 314 313 313 313 312 312 312 312 312 311 311 310
320 320 319 319 319 319 320 319 319 318 316 315 316 316 315 315 315 315 316 316 316 316 316 316 316 316 317 317 317 317 317 317 319 319 319 321 322 322 322 323 324 324 325 325 325 325 324 322 320 319 318 319 319 320 320 318 318 318 317 317 318 318 318 318 319 318 317 317 317 316 315 314 314 314 313 313 313 312 312 312 312 312 312 312 311 310 310
322 320 318 318 318 319 318 317 317 317 317 316 316 315 315 315 315 315 315 315 315 315 315 315 315 315 315 316 316 316 316 316 316 316 316 317 318 319 320 321 321 322 323 325 324 323 322 322 321 320 319 320 321 322 321 319 318 317 317 317 317 316 316 316 316 316 316 316 315 315 314 313 313 313 313 313 313 313 313 312 312 312 312 311 310 310 309
322 319 317 317 317 317 316 316 316 317 316 316 315 315 315 315 315 315 315 315 315 314 314 314 314 314 314 315 315 316 317 318 317 316 316 316 317 317 317 319 320 321 321 322 323 323 322 321 320 320 320 320 322 322 322 320 319 318 317 317 317 316 316 315 315 314 314 314 314 314 313 313 313 313 313 313 313 313 313 312 312 311 311 310 309 308 308
320 318 317 316 316 316 316 315 315 315 315 315 315 315 315 315 315 315 315 315 315 314 314 314 313 313 314 314 315 316 317 318 318 318 317 317 317 317 317 317 318 320 320 319 320 321 321 321 321 321 321 321 321 322 322 322 321 319 318 318 317 317 317 316 315 314 314 313 313 313 313 313 313 313 313 313 313 313 312 312 312 311 309 308 308 308 308
319 318 317 316 316 316 316 316 316 316 316 315 315 315 315 315 315 315 315 315 315 314 314 314 314 314 314 314 314 315 316 317 317 317 317 317 316 316 317 317 317 319 319 318 317 317 318 319 320 321 321 321 321 321 321 321 321 320 319 318 318 318 318 317 316 316 315 314 313 313 313 313 313 313 313 313 313 313 312 312 311 310 309 308 308 308 308
319 319 319 318 317 315 315 316 317 317 317 316 315 315 315 315 315 315 315 316 315 314 314 315 315 314 315 315 315 314 315 316 315 316 316 316 316 316 316 316 316 317 317 317 316 316 316 316 317 319 319 319 319 319 319 319 320 319 319 318 318 318 318 317 317 317 316 315 314 314 313 313 313 313 313 313 313 312 312 311 311 310 309 309 309 308 308
Wind_Speed
22 22 20 18 16 15 17 19 20 21 22 22 21 21 22 20 14 13 14 16 19 19 19 20 17 14 14 14 14 16 16 13 7 6 7 9 10 11 13 14 15 15 15 15 16 16 17 20 22 21 21 22 22 21 20 21 21 21 21 23 24 24 23 21 21 22 24 31 39 40 36 38 40 40 40 40 38 36 34 31 28 25 23 22 22 22 24
21 24 23 23 21 18 19 20 21 22 24 25 23 22 24 24 21 19 18 19 19 17 18 21 20 17 16 15 15 16 17 16 10 7 9 10 11 13 14 15 15 15 15 15 16 16 17 19 21 21 21 21 22 21 21 21 22 22 21 22 23 23 22 21 22 25 26 28 36 39 38 39 42 42 41 40 37 37 36 32 28 26 24 21 20 21 24
17 21 22 23 23 22 21 21 22 23 23 24 25 23 22 22 22 23 23 22 18 15 15 18 18 17 17 16 17 17 17 18 14 10 10 11 12 13 14 14 14 14 15 15 16 17 17 19 22 22 21 21 21 21 21 22 23 23 22 23 24 22 21 22 25 28 27 26 33 40 41 39 41 42 40 36 34 36 36 31 28 27 25 22 20 20 21
12 17 20 22 22 21 21 21 21 23 22 21 21 20 21 21 20 22 23 19 15 13 15 17 17 18 19 18 18 17 16 16 16 12 11 12 13 13 13 14 14 15 17 17 18 18 18 20 22 22 21 21 21 21 22 21 22 23 22 23 23 21 23 25 27 29 28 26 29 37 41 40 38 36 33 29 29 31 32 31 29 26 24 23 21 20 19
10 14 18 19 19 17 16 16 19 21 21 21 20 20 21 23 21 18 17 15 13 14 15 17 18 21 21 18 17 15 14 14 14 12 12 12 12 12 12 13 15 16 17 16 16 17 18 20 22 22 21 21 21 21 21 20 21 22 22 22 22 22 25 27 28 28 27 26 27 31 38 39 32 27 26 25 26 26 27 30 30 28 28 26 22 21 20
8 10 9 10 14 14 11 11 16 21 22 22 22 20 21 21 19 16 15 14 14 14 16 18 18 18 18 16 15 15 13 11 11 11 11 11 10 10 11 12 14 14 13 13 15 17 19 20 20 20 20 19 18 19 20 19 20 21 21 21 22 24 26 27 27 27 26 27 28 29 33 34 28 25 25 25 25 25 25 26 27 27 29 25 21 22 22
7 8 6 8 12 11 6 5 8 12 16 20 22 21 21 21 20 19 19 18 17 16 16 17 16 15 15 13 13 12 10 8 8 9 9 9 10 10 11 12 12 13 13 13 14 17 19 19 19 19 18 17 17 18 19 19 20 20 20 20 21 24 26 26 26 25 25 28 28 27 29 29 25 24 25 24 23 23 21 21 21 22 23 20 18 20 20
5 6 9 10 9 6 6 3 2 4 9 14 17 19 22 22 21 20 20 20 20 18 16 16 15 12 10 8 7 9 9 8 10 10 9 9 11 11 11 12 12 14 15 16 17 18 19 19 19 19 19 19 19 19 19 19 19 19 19 20 21 22 24 24 24 24 25 27 27 26 28 29 25 24 25 25 22 20 17 17 18 18 18 18 18 18 17
4 6 8 8 6 7 7 2 5 5 4 6 8 10 14 18 20 19 18 20 21 20 19 18 13 7 5 7 9 11 12 11 11 11 10 10 11 11 12 13 14 16 17 18 19 20 20 20 20 19 19 20 19 19 19 18 19 19 18 19 20 21 22 22 22 24 25 26 26 26 27 28 27 26 27 25 21 20 19 18 18 18 17 17 18 17 15
3 4 5 7 8 7 3 3 5 6 6 7 6 6 8 13 17 20 19 19 19 20 20 17 9 6 6 9 10 12 14 12 11 10 10 10 11 12 12 13 15 18 20 20 20 20 20 20 19 20 21 21 20 19 18 18 18 18 17 18 18 19 21 21 21 23 25 26 26 25 25 27 27 27 27 25 21 19 20 19 18 17 16 16 16 14 13
6 5 5 7 9 4 3 5 6 7 5 4 4 6 9 9 11 16 19 21 20 20 19 14 10 7 9 10 10 9 11 12 10 9 9 9 10 11 13 15 17 18 20 21 20 19 19 19 20 21 22 22 20 18 17 16 16 15 16 17 17 18 20 21 20 22 24 25 25 24 24 25 25 24 24 22 19 17 18 19 17 15 17 19 16 12 10
8 7 7 7 5 1 6 8 9 7 3 1 4 9 6 5 11 12 12 16 18 18 15 12 11 11 10 8 5 7 10 10 9 9 9 9 10 11 13 16 19 19 20 21 21 20 19 19 20 22 22 20 18 17 16 15 14 14 14 15 16 17 18 19 19 21 23 24 24 22 22 22 22 22 20 18 17 16 17 19 18 16 17 19 15 10 7
9 8 8 7 4 2 6 9 9 6 3 5 7 6 3 8 13 12 11 12 13 11 11 11 10 10 6 2 4 8 10 9 9 9 10 11 11 12 13 16 18 19 19 20 20 19 19 19 20 20 20 19 18 17 16 15 13 12 12 13 14 15 16 17 18 20 21 22 22 21 20 19 19 19 17 16 16 16 16 18 20 19 18 16 11 8 6
10 9 8 8 6 2 5 7 5 4 4 5 3 5 8 10 12 10 8 10 10 9 10 11 8 7 7 7 8 9 10 11 11 11 12 13 13 15 17 17 18 19 19 19 20 19 18 19 19 18 19 19 18 17 15 13 12 11 12 13 13 14 15 15 17 19 19 19 19 18 17 18 17 16 14 14 16 17 16 18 20 20 17 13 8 6 4
9 9 9 8 6 3 5 5 3 4 4 5 6 9 10 9 9 9 7 5 6 7 8 8 7 9 10 10 10 11 11 12 13 13 14 16 16 17 18 18 18 18 18 17 18 17 17 16 16 17 18 18 17 16 15 13 12 13 13 13 14 14 15 15 16 18 19 19 18 16 17 18 18 16 14 14 16 18 17 18 19 18 13 11 9 6 4
9 11 9 5 3 6 5 4 3 3 4 7 8 8 8 7 7 6 4 3 2 3 4 5 7 10 12 12 12 13 12 13 14 14 15 16 16 17 17 18 19 19 17 17 17 16 14 14 13 13 15 16 16 15 15 14 14 14 14 14 14 14 15 15 16 17 19 20 19 17 17 18 16 16 16 15 17 20 19 17 17 14 11 10 9 7 4
5 4 2 3 5 6 7 7 6 5 5 7 7 6 5 5 5 5 4 5 5 3 5 7 8 11 14 15 15 15 15 16 16 16 16 16 17 17 18 18 19 18 18 19 18 17 14 14 14 12 12 14 15 14 13 13 13 13 14 14 14 13 13 14 15 15 16 18 18 17 18 19 16 15 15 15 17 20 19 16 13 11 9 8 6 4 5
2 2 5 6 5 5 8 10 10 8 7 8 7 7 6 5 4 5 7 8 9 8 7 8 10 13 16 18 17 16 16 17 17 17 16 16 16 17 17 17 18 18 18 17 17 17 15 13 14 12 11 13 14 13 11 11 10 10 11 12 11 11 10 11 12 13 14 15 16 17 18 18 17 15 14 15 16 18 18 15 13 10 9 7 5 6 7
3 3 4 5 5 6 8 10 11 10 8 8 8 7 7 7 6 7 11 14 13 11 8 8 10 14 17 17 16 15 15 15 16 16 16 15 15 15 15 15 16 17 16 14 15 15 13 12 12 12 11 12 13 12 11 11 10 11 11 11 11 10 9 9 11 12 13 13 14 15 15 14 14 15 15 15 16 17 17 15 12 11 10 9 9 8 7
1 3 5 5 7 9 10 9 9 8 7 8 10 9 9 10 10 10 14 16 15 13 11 9 10 15 16 16 15 14 13 13 14 14 14 14 14 14 15 15 15 16 16 15 14 14 13 11 11 12 12 12 12 12 11 11 12 12 12 12 12 10 9 9 9 10 12 12 12 13 13 12 11 11 13 14 15 14 13 12 12 11 11 11 11 9 8
2 4 5 5 6 9 11 10 10 8 7 7 10 11 12 13 13 13 15 17 15 14 12 11 12 14 14 14 15 15 13 13 13 13 12 12 13 13 14 14 15 16 16 15 15 14 12 11 11 12 12 11 11 11 11 11 12 13 13 12 11 10 9 9 9 9 10 11 11 10 10 12 11 8 6 8 11 11 11 10 11 11 11 10 10 10 10
2 2 3 4 4 5 7 8 10 10 8 7 11 13 14 15 14 13 14 16 16 16 15 13 12 12 12 12 14 14 13 12 12 13 12 12 12 13 14 14 16 16 15 15 15 14 12 11 11 11 11 11 10 10 10 11 12 13 13 11 10 9 9 9 10 11 11 11 11 9 10 12 10 7 6 6 7 10 10 11 11 12 11 11 11 11 10
3 3 2 3 4 5 5 6 9 9 7 9 13 14 14 14 14 14 14 15 16 16 15 15 14 13 12 12 13 14 13 12 12 12 12 12 12 13 14 14 14 14 14 14 14 13 11 10 11 11 11 10 9 9 10 10 11 12 12 9 9 9 8 8 9 11 12 12 11 10 9 10 10 9 9 8 7 7 8 10 11 12 12 12 13 14 11
4 4 3 5 6 7 6 6 8 8 7 10 13 14 14 14 14 13 14 14 14 14 14 14 15 14 13 13 14 14 13 12 12 13 13 14 13 13 13 13 13 13 12 12 11 11 10 10 10 10 10 9 8 9 10 10 11 11 10 9 9 9 8 9 9 8 8 10 10 9 9 9 9 10 10 9 7 6 7 9 11 12 12 12 14 16 14
4 5 6 9 10 10 8 8 9 8 8 10 12 12 13 14 13 12 12 13 13 13 13 13 14 15 14 12 12 12 12 13 13 12 12 12 12 12 12 12 11 11 10 10 9 9 9 9 9 9 9 9 9 8 9 9 9 10 10 10 10 9 10 12 11 8 8 9 9 10 10 9 9 10 10 9 9 9 9 9 10 12 13 13 13 15 14
7 6 9 12 13 10 8 9 10 9 9 10 11 11 12 12 11 11 12 12 12 13 13 12 12 13 14 13 12 12 12 12 13 13 11 10 10 10 10 11 10 9 9 9 9 9 9 9 9 8 8 8 8 8 8 9 9 10 11 11 11 11 13 14 13 11 11 11 11 11 11 10 11 12 11 10 10 11 11 10 10 10 12 13 13 13 13
10 8 8 12 13 11 9 9 10 9 10 11 11 11 10 8 7 8 11 12 13 14 14 13 11 10 11 12 13 13 13 12 12 12 11 10 10 10 9 10 10 9 9 9 8 8 8 8 8 8 8 8 8 8 9 10 10 10 11 11 11 11 13 13 12 12 12 11 11 11 12 11 10 10 9 9 10 11 11 12 11 11 11 12 14 13 12
12 12 10 10 10 9 9 9 9 10 10 11 10 9 8 8 7 8 9 10 11 10 10 11 10 8 7 8 9 9 9 9 9 9 9 10 11 10 10 9 9 8 8 8 8 8 7 7 8 8 8 9 9 9 10 11 11 10 11 10 9 11 12 12 10 10 10 10 10 10 10 9 8 7 8 9 10 11 12 12 13 13 12 12 13 13 12
10 10 10 10 9 9 8 9 10 10 10 10 9 8 7 8 8 9 9 9 8 6 5 6 8 8 7 7 7 6 5 6 7 8 9 10 11 11 10 8 7 7 8 7 7 6 6 7 8 9 9 10 10 11 12 11 11 10 9 8 7 8 9 9 8 8 8 8 9 10 10 10 9 9 10 11 11 10 10 10 11 12 12 13 13 12 10
7 8 8 8 8 10 10 10 10 10 10 9 9 8 8 8 8 9 9 7 6 5 5 5 6 7 8 7 6 5 5 5 6 7 8 10 11 11 11 9 6 5 6 7 6 5 5 6 7 9 10 11 12 12 12 11 10 9 8 6 4 4 6 8 7 6 7 8 10 11 11 10 10 11 11 10 9 9 9 9 9 9 10 11 11 10 9
6 8 8 7 7 8 8 7 7 7 7 8 8 8 8 8 8 8 7 6 5 5 5 4 4 5 7 7 6 6 6 6 6 6 8 9 10 11 12 10 7 5 5 5 5 4 4 5 6 8 10 11 12 12 11 10 8 7 6 5 4 4 6 8 7 6 7 9 10 11 10 9 9 10 10 9 8 8 8 8 8 8 8 9 9 8 8
7 6 6 5 5 5 5 5 5 5 5 6 7 7 6 7 6 6 6 5 5 6 5 5 5 5 6 6 6 6 6 6 6 8 9 9 10 11 11 10 8 7 6 5 4 2 3 5 6 8 9 10 11 11 10 8 7 7 6 5 5 5 7 8 7 7 8 9 10 9 9 9 9 9 9 8 8 7 7 7 7 7 7 8 8 7 8
5 4 3 3 3 4 3 3 3 4 4 5 4 4 4 5 5 5 5 4 5 5 5 5 6 7 6 6 6 6 6 6 7 8 10 10 10 10 10 8 6 6 5 5 4 1 2 4 5 7 9 9 10 10 9 8 9 8 6 4 4 6 8 9 9 8 8 8 8 8 8 7 7 7 7 7 6 5 5 6 6 6 7 7 6 7 9
3 3 3 3 2 2 3 3 1 1 2 2 3 3 4 4 4 3 3 2 3 4 5 6 6 6 6 7 7 8 8 7 6 7 9 10 9 9 8 6 5 4 5 6 6 3 2 2 3 6 8 9 9 8 8 8 7 6 4 3 4 6 9 10 10 10 9 8 8 8 7 7 7 6 5 5 4 4 5 6 6 6 6 6 5 7 8
2 3 4 4 3 3 4 4 2 1 2 2 3 3 4 4 3 2 2 1 2 3 4 5 5 6 7 7 8 8 8 7 7 7 8 8 8 8 7 6 5 4 5 7 7 5 3 1 2 5 7 9 9 9 9 9 7 6 5 6 6 7 9 10 9 8 8 8 8 7 7 7 6 5 5 4 5 5 5 6 6 5 6 6 6 7 7
4 4 4 5 5 5 5 4 3 3 3 3 3 4 4 4 3 2 2 3 4 5 5 6 6 7 7 8 8 8 8 8 8 8 7 7 7 7 6 6 6 4 4 7 7 5 2 1 2 4 6 7 8 8 7 8 7 6 7 7 7 8 9 9 8 7 7 7 7 7 7 7 7 5 4 4 5 5 5 6 6 6 6 6 6 7 8
6 6 5 4 4 4 4 4 4 4 4 4 4 4 4 3 3 3 4 5 6 7 7 8 8 8 8 9 9 9 9 9 8 8 8 7 7 7 7 7 6 4 4 5 6 5 4 3 2 3 5 5 5 5 6 7 7 7 8 8 8 9 9 8 8 7 7 7 7 7 7 6 6 6 5 5 5 6 6 6 6 5 5 6 6 6 7
6 5 4 3 3 4 4 4 4 4 4 4 4 4 4 4 4 4 6 7 8 8 8 9 9 9 9 9 9 10 10 9 9 9 9 8 7 7 7 7 7 5 5 4 4 4 5 4 3 3 4 4 5 7 9 10 9 8 8 8 8 8 7 8 8 8 7 7 7 7 6 6 6 6 6 6 6 6 6 6 6 6 6 7 7 7 7
6 5 5 4 3 4 4 4 5 5 5 5 5 5 5 5 5 6 7 7 8 7 8 8 8 9 9 9 9 10 11 10 10 9 9 8 7 7 8 8 8 6 4 3 3 5 6 3 3 5 5 5 7 8 9 10 9 7 7 8 8 7 7 8 8 8 8 7 7 6 6 5 6 6 6 6 6 7 6 6 5 6 7 7 6 6 6
6 5 5 5 4 4 4 5 6 7 7 6 6 6 6 7 7 7 8 8 8 8 8 9 8 9 9 9 8 9 10 10 10 9 9 8 7 6 7 8 9 7 4 3 5 7 6 4 3 5 6 6 6 8 9 10 9 7 7 7 7 8 9 8 8 8 8 7 7 7 7 7 8 8 8 8 8 8 8 7 6 5 5 5 5 5 5
5 5 5 5 5 5 5 6 7 7 7 7 8 7 7 7 8 8 8 8 8 8 9 9 9 9 9 8 8 8 8 8 9 9 9 8 8 6 5 7 8 8 7 7 7 6 5 5 4 5 6 6 7 8 8 8 7 6 7 8 7 8 8 8 7 7 7 7 7 8 7 8 8 8 8 8 8 7 6 6 5 5 4 4 5 5 5
5 5 6 5 5 6 7 7 7 7 7 8 8 8 8 8 8 7 7 7 7 7 8 8 7 7 7 7 7 7 8 8 8 8 8 8 9 7 6 6 8 8 8 7 6 5 5 6 6 6 5 6 7 8 7 6 5 6 6 7 7 7 8 7 7 7 7 7 8 7 7 8 8 8 7 7 6 6 5 5 4 4 4 5 5 6 7
6 6 6 5 5 6 7 7 7 7 7 8 8 7 8 8 8 8 7 8 8 8 8 8 7 7 8 8 8 7 8 8 8 7 7 7 8 9 8 7 7 7 6 5 4 4 4 5 6 6 6 5 6 7 6 4 4 5 6 6 7 8 8 8 8 8 9 9 9 9 9 8 8 7 7 7 6 6 5 5 5 5 5 6 6 7 8
5 6 6 5 5 5 6 7 7 7 7 7 7 8 8 8 8 8 8 8 9 9 9 10 10 9 9 9 9 8 8 8 8 7 6 5 6 9 10 8 6 5 4 4 4 2 2 4 6 7 6 5 6 6 4 4 5 6 6 6 7 8 8 9 9 9 9 9 8 8 8 8 7 8 8 7 6 6 5 5 5 4 4 5 6 6 7
5 5 5 5 5 5 6 7 7 5 4 5 7 8 9 8 8 8 8 8 9 9 9 10 10 10 10 11 10 9 8 7 8 8 7 5 5 7 9 8 6 4 3 3 3 2 2 3 5 6 6 6 6 5 3 3 5 6 6 7 7 7 8 8 8 8 8 8 8 8 9 8 8 8 7 6 6 5 5 5 4 4 4 4 5 5 6
4 4 4 4 5 5 6 6 5 4 4 5 6 8 8 8 8 8 8 8 8 9 9 9 10 10 11 11 11 10 9 8 8 8 8 7 6 7 8 7 5 4 3 2 2 1 1 3 4 5 6 6 4 3 2 3 4 4 5 6 7 7 8 9 9 9 9 10 10 10 9 9 9 8 7 6 6 5 5 4 4 5 5 5 5 5 6
3 3 4 4 4 5 5 5 4 4 4 5 5 5 7 8 8 7 8 8 8 7 7 8 8 8 8 9 9 9 9 8 7 7 8 7 6 5 5 5 5 4 3 2 2 0 2 4 4 4 4 4 3 3 3 4 4 4 4 4 5 6 7 8 9 10 10 10 9 8 8 7 8 8 7 7 7 7 6 6 6 6 6 6 6 6 7
2 3 4 5 5 5 5 4 4 4 5 4 4 4 6 7 6 7 8 8 7 6 6 6 7 7 7 5 5 6 6 6 5 6 7 7 6 5 5 4 4 4 3 3 2 1 2 3 4 4 5 5 6 6 6 6 5 5 5 5 5 5 5 6 8 9 9 9 8 8 9 9 9 9 8 8 8 8 7 7 7 6 6 6 6 6 7
2 3 4 4 5 5 5 4 4 4 4 3 4 5 5 5 5 6 7 8 7 7 7 6 6 6 5 4 4 4 4 4 4 5 6 6 6 6 5 4 3 3 4 4 3 3 4 4 4 4 6 7 8 8 8 8 8 8 7 7 7 7 7 6 7 7 7 8 9 9 10 10 10 10 10 10 10 9 8 7 7 7 7 7 7 7 8
3 3 3 3 4 5 5 5 4 4 3 4 4 4 5 5 4 5 6 7 6 6 7 7 7 7 6 5 5 5 4 4 5 6 6 6 6 6 6 5 4 4 5 5 5 4 4 5 6 7 7 8 8 8 8 9 9 9 9 10 10 9 9 8 7 7 8 9 9 10 10 10 11 11 11 11 11 10 9 9 8 8 8 8 9 9 9
3 2 1 2 3 4 4 4 3 3 3 4 4 4 5 5 5 5 5 6 6 7 7 8 8 8 8 8 8 7 6 6 6 7 7 7 8 8 8 8 7 6 6 6 6 5 4 5 6 7 8 9 9 9 9 9 10 10 11 12 12 12 11 11 10 11 11 11 11 11 11 11 11 12 13 13 13 12 11 10 9 9 9 9 10 10 9
3 3 3 3 3 3 3 3 4 4 4 4 5 6 5 6 6 6 4 4 6 7 7 8 9 9 8 8 8 9 8 8 8 8 8 9 10 10 11 10 10 9 9 9 8 8 6 5 6 7 8 8 9 9 9 10 11 12 12 13 14 14 13 13 13 13 13 13 13 14 14 13 13 14 14 14 13 12 11 10 10 10 10 11 11 11 10
Wind_Direction
232 237 239 234 226 224 225 223 220 220 221 222 226 231 235 235 236 240 234 227 230 233 232 233 230 227 231 236 241 248 257 261 242 189 194 205 200 193 190 192 195 196 196 192 187 185 182 182 184 185 187 189 190 190 191 191 192 192 188 186 188 190 189 189 195 192 186 196 208 211 208 209 211 210 210 211 212 213 212 210 211 212 209 210 213 216 220
228 231 233 235 233 227 228 230 229 227 224 222 224 230 233 234 238 243 241 236 232 228 228 237 241 242 244 247 245 244 252 261 253 212 210 217 210 203 197 195 195 195 197 195 187 183 182 183 184 185 185 187 187 188 188 189 191 190 186 185 188 189 186 184 192 197 194 197 206 210 211 212 213 212 211 211 210 210 209 208 208 209 207 205 206 212 219
231 229 230 232 234 232 231 231 232 233 232 228 226 226 228 232 236 238 239 240 237 228 228 237 240 244 247 247 243 241 246 256 256 237 224 224 218 210 202 195 193 192 194 193 185 182 183 184 183 183 183 184 184 187 188 188 188 187 185 184 188 189 184 184 193 197 196 197 204 209 213 214 214 213 212 210 208 208 207 204 205 209 209 206 207 211 215
230 225 227 229 230 234 235 233 232 233 234 234 232 228 226 228 232 234 235 237 238 233 232 234 234 238 242 239 236 235 237 246 248 240 232 228 219 211 202 194 190 190 191 189 185 183 183 183 182 181 179 179 181 186 187 186 185 185 184 183 183 185 185 188 196 196 193 198 205 208 212 215 214 212 210 207 206 205 204 203 203 206 208 210 213 213 212
231 223 223 225 226 229 231 229 229 232 234 235 237 235 231 227 229 233 233 235 238 234 230 230 230 232 234 230 228 228 229 235 237 234 234 232 222 212 201 192 190 191 191 189 184 181 180 182 182 180 178 178 181 184 183 182 182 183 184 183 182 186 191 194 198 196 194 201 208 210 213 215 213 210 208 205 204 201 200 201 202 204 209 214 219 219 217
236 221 215 225 228 227 229 228 227 229 231 233 236 239 237 232 231 236 241 242 239 229 225 229 229 228 228 226 224 224 225 226 227 229 235 238 231 218 204 197 194 190 186 182 177 177 181 183 182 180 179 178 178 178 178 179 180 181 183 184 184 191 196 197 196 195 196 204 210 213 214 213 210 209 208 206 203 201 200 198 197 203 209 213 219 223 223
234 211 201 225 227 224 237 251 239 238 239 238 239 241 242 240 237 238 242 244 242 232 226 230 232 231 231 231 231 230 228 227 229 230 232 229 223 214 203 196 190 181 175 173 172 174 179 179 176 175 175 173 170 171 173 175 176 178 179 180 185 193 195 193 193 196 200 206 211 215 215 213 209 209 210 209 202 198 197 193 193 200 203 205 215 223 221
236 215 217 228 237 249 258 273 351 309 260 246 244 242 238 237 237 236 236 238 240 235 229 233 238 235 232 236 241 240 235 232 233 235 234 223 213 206 196 187 181 177 173 170 167 167 169 169 168 168 169 168 168 168 171 173 174 175 178 180 185 192 191 187 191 199 204 207 212 216 215 214 213 211 214 213 201 191 191 191 192 198 199 203 215 221 215
237 230 228 231 247 260 254 264 38 16 325 289 275 257 242 237 237 237 236 236 235 232 234 239 234 215 220 244 248 240 232 225 227 233 236 224 207 196 188 181 176 173 169 165 161 158 158 160 162 163 164 166 165 166 169 171 174 176 179 181 184 188 187 186 193 202 206 209 213 216 215 216 216 216 218 215 202 192 193 195 195 196 198 205 214 214 211
226 248 244 236 237 233 200 81 44 13 348 332 321 294 256 242 238 234 232 231 230 232 237 233 207 179 219 244 248 239 224 212 210 219 225 219 203 192 183 174 168 164 160 155 152 153 155 158 160 161 162 162 160 162 167 170 174 177 181 183 182 183 185 188 195 203 207 211 214 216 217 218 218 216 217 213 203 192 191 193 195 192 194 208 214 207 208
223 235 238 239 240 221 88 48 12 355 340 336 319 270 245 248 257 247 235 227 223 229 232 215 180 186 224 237 240 224 203 195 193 193 197 193 181 172 165 159 157 157 152 147 148 154 156 156 158 158 158 157 156 158 163 167 171 177 182 184 183 184 185 188 196 205 208 211 215 217 220 220 218 215 212 207 200 191 188 193 197 192 196 209 213 204 206
219 227 236 248 247 121 51 10 352 342 321 218 231 237 237 327 332 311 277 248 232 227 222 200 186 204 224 239 225 171 162 171 172 171 176 172 163 160 159 155 152 150 147 145 149 154 153 152 154 154 153 152 151 152 157 162 169 176 181 183 183 183 184 190 198 204 207 211 216 220 222 221 218 213 207 199 195 193 192 197 201 200 201 205 202 187 189
216 222 234 251 249 83 28 353 348 340 277 213 215 236 302 336 324 324 318 290 267 241 214 197 200 211 209 173 126 139 147 152 151 155 162 160 156 152 147 144 142 140 141 143 144 143 143 145 148 149 149 145 143 146 152 157 166 172 174 176 178 180 185 194 200 203 206 211 216 221 223 220 214 207 200 194 195 199 199 198 198 197 198 198 190 177 194
223 223 229 241 230 124 18 353 15 18 281 234 251 319 322 315 311 317 314 292 283 265 229 213 208 188 158 136 133 138 139 136 136 142 145 140 135 128 124 127 133 134 135 134 131 130 134 139 143 145 144 139 138 143 147 152 158 159 160 167 174 178 186 194 199 203 208 211 215 221 221 215 207 197 187 191 203 208 208 204 200 195 191 186 173 165 206
221 219 222 234 218 134 30 352 40 42 317 299 329 323 312 318 328 325 315 298 286 270 240 214 183 152 139 133 128 126 126 126 126 127 126 123 119 117 118 123 128 126 122 120 119 121 126 131 136 140 137 132 134 139 140 143 148 150 155 164 170 176 185 191 195 202 208 211 215 218 215 208 202 192 184 193 207 210 208 203 198 191 178 162 153 154 189
215 223 220 219 154 106 73 37 59 51 333 318 319 312 316 339 342 331 342 12 334 267 225 177 151 136 126 120 118 117 114 111 107 106 106 107 110 111 111 113 116 114 111 110 108 107 112 117 122 127 128 128 132 135 136 141 147 150 157 162 166 175 184 188 194 201 205 210 215 214 209 205 197 187 188 198 205 206 204 197 189 181 164 151 153 162 188
214 249 221 114 89 93 94 86 80 63 9 341 330 327 337 349 354 3 30 61 78 104 135 140 134 125 117 113 110 107 103 99 95 94 94 96 101 104 104 106 110 111 112 114 113 110 109 108 108 112 120 127 129 128 131 140 147 152 156 160 166 175 181 187 196 199 201 208 214 213 212 208 192 181 190 200 201 201 199 190 179 168 149 139 146 176 204
141 59 73 91 84 78 88 90 81 62 31 5 358 4 7 1 16 45 58 64 71 86 113 123 118 111 105 101 98 94 90 88 87 87 87 87 90 96 100 105 109 111 110 111 111 108 105 101 103 108 116 121 121 120 124 134 142 145 149 155 162 169 173 182 193 198 201 205 208 211 215 210 195 188 196 199 195 196 194 184 169 152 140 147 183 210 215
174 158 106 100 92 76 73 76 75 65 42 18 7 12 19 19 27 54 65 64 63 66 74 88 99 99 95 93 92 89 84 82 82 81 80 78 78 81 84 92 100 103 101 98 96 96 94 93 97 102 104 106 111 117 124 131 135 135 140 148 153 157 164 173 186 199 205 202 200 205 206 199 191 191 193 190 188 190 191 181 164 152 158 182 203 211 210
144 125 100 95 91 75 60 60 68 61 39 25 18 14 22 29 31 46 60 62 57 50 44 49 72 84 87 90 92 90 87 85 83 81 81 81 80 78 78 82 89 92 93 94 94 93 93 94 97 100 101 104 113 122 127 132 135 134 136 142 145 148 157 168 181 199 202 193 194 199 191 181 186 190 188 192 194 191 184 172 161 166 182 196 202 202 197
133 111 115 126 109 80 63 60 62 49 28 29 30 23 25 30 31 41 57 62 58 47 35 33 49 65 74 82 88 89 88 87 88 87 87 86 85 83 82 82 84 87 91 94 96 96 96 98 100 101 104 110 119 125 128 133 135 133 133 136 137 138 151 167 178 191 192 186 190 188 167 163 179 188 181 191 193 181 167 163 169 184 198 201 196 191 187
178 105 137 147 121 88 72 63 59 48 30 36 45 37 29 28 26 33 50 60 59 50 37 31 38 51 59 69 78 81 80 80 85 89 90 88 85 84 84 83 81 83 87 91 94 96 98 101 103 103 105 110 115 119 124 129 128 125 126 129 132 143 163 176 180 185 185 178 175 167 147 146 156 146 114 124 150 158 166 178 191 201 203 196 185 178 180
36 30 107 110 72 79 93 81 71 58 39 47 55 47 37 33 28 30 42 51 54 51 42 34 35 41 47 55 65 70 69 66 70 76 79 83 85 83 83 83 82 82 85 89 91 93 95 98 101 101 102 105 107 109 112 114 113 114 119 131 151 168 174 165 163 173 174 165 158 153 145 146 150 142 129 127 135 155 176 187 194 196 193 189 186 183 183
42 35 90 105 95 98 96 79 73 66 53 59 61 51 43 40 32 29 37 43 46 49 46 37 32 33 40 48 55 62 65 61 60 64 68 71 77 81 82 81 82 82 83 85 87 90 92 94 95 97 99 100 100 100 100 101 106 117 133 154 170 171 153 130 128 140 151 152 151 148 146 151 152 142 137 140 143 152 171 182 185 184 184 187 190 190 191
80 75 90 99 102 102 95 77 70 65 60 67 67 55 46 42 34 32 36 37 39 44 46 41 30 24 29 42 49 55 62 61 58 64 69 69 73 78 81 82 82 84 86 88 90 92 94 94 94 95 95 93 92 96 102 110 123 139 154 162 160 153 144 142 142 142 144 152 157 152 148 154 152 146 150 158 153 145 153 168 174 174 178 182 184 187 190
82 90 105 105 99 98 100 93 82 74 70 74 74 66 55 43 30 30 38 40 38 37 38 41 35 23 23 33 40 44 52 57 58 62 66 69 70 70 73 77 78 82 86 87 86 88 91 93 95 95 97 104 111 119 128 138 146 155 161 160 155 152 151 152 154 155 155 158 159 154 153 160 163 162 164 164 154 146 146 151 154 159 168 172 173 175 175
57 56 86 101 93 81 79 82 81 79 77 77 81 83 81 71 48 38 41 43 42 35 27 25 27 24 27 35 38 37 39 42 49 55 56 58 61 59 59 65 70 74 80 81 83 89 96 102 109 113 117 126 132 136 142 148 154 159 163 161 156 151 149 149 150 153 153 154 156 156 158 162 166 165 161 155 153 155 154 152 152 154 158 165 168 167 162
55 48 57 71 66 53 51 58 63 63 63 69 77 85 92 92 79 61 49 42 43 44 32 18 14 13 23 39 45 44 42 40 44 50 51 50 52 54 56 61 67 74 81 87 95 105 111 118 123 123 125 132 137 139 141 146 151 157 160 158 151 148 151 154 155 154 153 156 160 160 160 159 158 159 163 165 166 167 165 162 160 157 154 157 161 160 156
54 51 53 51 35 22 24 36 44 47 50 56 61 62 67 73 70 62 52 37 31 38 35 20 11 5 11 33 45 47 52 52 48 49 49 45 43 44 44 49 64 77 80 83 90 99 108 119 125 126 131 140 145 144 143 145 147 147 149 150 147 149 159 166 165 157 152 154 157 156 157 160 160 162 170 174 171 168 169 167 161 157 153 152 153 154 155
56 56 59 49 28 22 27 28 28 31 37 44 49 51 55 61 62 58 49 30 16 16 15 16 15 7 4 16 25 26 40 52 48 48 51 46 40 35 29 27 46 74 74 69 72 84 108 128 135 138 144 150 152 149 146 144 140 137 141 145 139 145 161 169 173 170 156 146 148 153 158 163 165 165 166 167 164 164 166 166 166 168 165 161 164 168 166
81 74 75 68 44 34 33 24 15 15 20 27 37 43 46 49 52 54 45 23 5 360 1 10 24 14 1 359 6 14 30 44 47 51 53 46 39 34 28 25 32 41 41 44 52 74 116 134 139 143 148 153 154 151 148 145 141 142 149 150 150 165 168 162 161 164 155 146 148 155 160 161 161 161 161 162 165 168 169 173 183 188 179 177 188 189 167
88 75 73 72 57 43 29 11 6 17 22 24 29 33 35 37 38 37 33 18 359 348 349 360 16 14 1 357 1 9 22 40 49 52 49 44 38 31 25 24 26 25 20 23 34 78 139 154 156 153 151 150 149 147 145 142 139 137 136 134 142 164 173 169 162 155 151 151 153 156 157 156 156 158 160 161 166 172 171 175 188 191 184 190 204 198 173
81 68 51 48 54 58 53 21 6 17 29 30 26 24 30 36 31 21 17 9 352 342 346 358 7 7 4 6 10 14 24 40 50 47 41 37 32 25 18 14 17 21 23 23 25 57 155 161 161 162 161 157 153 148 143 138 133 128 124 126 139 149 159 165 162 154 153 158 157 152 151 152 153 154 154 153 160 174 179 182 187 191 197 206 202 181 176
40 47 59 67 63 83 117 129 117 46 45 45 44 46 48 50 45 31 16 1 354 357 6 11 10 9 14 20 23 27 33 39 42 37 32 27 21 15 10 8 16 32 42 38 34 38 62 84 144 171 174 173 172 168 161 158 156 152 159 181 176 158 157 162 164 163 162 157 145 139 141 144 146 147 147 152 171 187 191 193 194 194 199 200 168 150 171
64 71 86 101 105 105 114 120 109 71 66 59 59 62 60 57 60 56 45 34 31 33 36 35 31 31 34 32 31 35 39 41 39 34 30 25 19 13 11 15 24 45 63 56 45 40 44 49 209 203 193 191 194 194 190 189 190 186 186 190 181 164 159 161 163 162 156 146 141 144 146 142 140 145 152 166 184 192 192 196 198 193 192 187 161 150 172
91 86 86 91 94 95 95 86 65 58 57 49 49 55 56 55 57 56 51 48 42 39 42 44 43 45 43 40 38 38 38 39 40 36 31 28 25 21 22 26 25 38 69 61 42 29 36 81 200 202 196 199 204 202 196 200 201 187 176 173 164 154 153 152 147 142 142 143 142 138 131 124 125 138 160 175 183 190 192 191 190 190 188 182 170 162 166
80 76 75 77 83 89 86 77 71 74 68 59 55 53 50 49 40 33 39 44 40 35 36 38 40 42 39 35 38 39 36 33 34 33 33 33 31 29 34 34 26 27 52 51 35 29 45 64 102 156 173 184 185 169 159 164 166 160 156 153 148 147 149 148 143 142 146 148 142 135 137 139 137 145 171 186 181 184 192 186 181 187 187 177 174 174 170
92 88 87 81 73 75 74 70 70 71 68 68 67 57 51 51 44 37 41 41 36 34 37 39 42 42 38 34 36 39 35 32 31 33 36 35 33 39 46 39 28 32 43 38 39 55 56 53 81 129 146 155 147 140 145 150 150 151 151 144 137 140 148 151 153 157 156 154 153 156 166 171 162 162 180 188 177 176 185 181 176 185 188 179 179 189 189
104 103 99 88 74 69 69 69 69 63 56 55 57 51 46 49 51 53 55 51 42 39 42 44 45 45 41 39 39 38 34 31 30 32 35 33 35 57 69 57 41 40 35 14 57 80 70 57 99 118 121 129 127 124 131 136 133 134 141 138 136 150 164 163 163 167 163 160 167 174 173 171 170 170 173 174 171 171 174 175 181 193 195 189 189 199 206
103 103 103 101 97 90 81 75 72 66 56 52 51 45 38 39 43 48 51 50 45 41 39 39 42 44 40 38 38 36 33 31 29 29 31 31 37 64 80 66 52 50 45 36 62 76 69 56 91 109 111 116 115 116 125 129 124 125 141 149 153 164 169 165 164 168 164 160 172 179 173 168 171 171 167 168 174 176 172 171 183 195 199 201 208 215 221
102 103 102 99 94 87 81 76 73 68 61 57 54 49 43 42 44 43 41 40 42 43 40 36 37 39 38 37 38 36 32 31 31 30 30 30 32 42 58 55 49 51 53 53 59 71 72 66 76 94 103 104 104 111 126 138 140 143 155 164 166 164 161 161 165 168 164 166 177 181 174 168 173 176 173 174 180 182 179 181 190 201 210 220 226 233 238
106 103 98 91 85 82 80 77 75 72 67 61 57 55 52 51 51 51 48 44 43 47 51 50 46 42 39 39 41 40 34 30 30 33 36 35 32 29 33 41 44 45 46 47 53 74 91 90 88 89 89 94 107 122 133 145 153 152 155 163 167 164 162 164 169 169 170 177 181 178 173 175 178 178 177 181 184 186 189 197 204 212 227 239 244 248 251
109 106 100 93 86 82 79 76 76 76 71 64 59 57 55 54 53 54 55 53 49 48 51 54 53 48 42 38 38 40 38 31 25 28 39 45 41 35 31 33 40 47 46 36 39 66 87 88 88 88 82 87 116 139 150 158 162 161 160 161 164 164 165 168 172 174 177 181 179 173 174 182 184 178 181 192 198 195 200 216 230 236 245 256 261 261 261
104 102 100 98 95 89 80 75 72 70 67 63 57 52 49 48 48 46 46 48 48 45 43 44 44 41 38 35 31 29 30 29 23 20 27 46 54 45 37 28 25 34 31 8 3 27 68 82 90 95 93 101 124 147 166 174 165 159 157 159 165 169 169 169 171 173 176 179 179 177 181 190 195 194 196 204 209 209 215 230 246 256 261 267 269 270 271
104 97 93 92 91 85 77 72 67 63 67 71 64 53 45 42 44 43 42 42 45 44 42 40 38 34 31 32 31 25 23 29 28 19 16 24 37 34 28 20 12 7 1 346 344 2 55 96 109 114 114 119 132 150 172 174 167 166 166 166 168 171 171 170 173 177 179 181 186 191 195 201 207 210 211 211 214 218 220 225 238 252 256 258 267 277 280
107 100 87 78 73 69 67 66 63 55 57 65 63 55 45 39 39 41 38 35 37 39 37 35 34 30 26 25 24 20 20 29 37 31 24 22 21 16 13 13 13 5 348 325 321 350 120 137 143 140 133 133 146 175 187 169 170 180 184 181 180 181 181 181 182 187 192 196 199 205 209 212 214 214 211 208 209 212 208 211 231 248 253 257 271 283 286
104 95 79 64 59 58 59 63 66 64 56 50 48 47 41 34 31 33 36 34 31 31 33 32 29 25 22 20 19 17 15 19 31 37 30 20 13 10 9 9 6 352 329 316 319 289 152 156 168 179 173 171 195 216 204 184 179 183 185 188 193 198 198 196 196 200 207 210 210 212 213 214 215 214 209 206 213 219 216 216 230 245 252 256 263 272 278
90 91 77 63 59 62 63 63 69 71 62 49 40 38 34 28 26 29 31 28 20 16 24 34 29 19 12 9 11 13 10 5 13 24 22 11 6 9 9 3 354 338 314 294 279 224 183 175 182 198 208 220 235 238 225 213 206 200 196 197 200 205 210 211 210 214 218 217 213 212 212 213 215 217 215 214 221 228 227 227 237 249 256 258 264 274 282
86 100 88 71 65 66 62 58 64 67 57 45 44 34 15 6 14 25 25 20 13 7 12 23 27 23 15 2 355 2 1 344 336 344 347 343 345 350 351 348 345 330 309 293 275 245 225 220 222 221 222 231 243 245 240 233 227 222 221 222 220 217 218 219 217 219 221 216 211 213 217 218 220 223 225 229 234 236 234 236 245 250 252 258 269 277 280
74 94 90 72 60 50 37 34 45 51 36 25 28 18 354 349 6 19 14 5 2 4 7 8 9 12 12 7 2 4 356 334 323 324 324 319 318 318 318 318 317 310 303 302 299 280 251 243 247 247 245 248 253 253 249 245 241 234 231 231 233 233 232 228 225 226 228 226 224 223 223 225 230 234 236 239 243 245 243 244 248 247 246 253 262 266 266
52 67 76 62 50 36 20 16 25 32 23 11 4 357 352 352 359 7 7 355 345 349 358 359 355 356 357 352 348 351 352 344 336 333 332 330 327 319 311 307 301 292 287 289 293 290 277 259 251 250 252 258 262 261 257 255 253 247 240 238 239 240 238 235 232 233 233 232 235 237 234 233 237 241 241 242 245 246 246 246 246 243 244 250 254 255 257
31 23 19 20 8 349 349 2 360 352 355 360 353 346 347 345 339 344 4 3 340 337 344 343 339 344 351 348 341 342 344 342 338 335 334 334 333 328 321 314 307 299 292 287 284 284 283 275 258 248 247 255 262 263 260 257 256 254 251 248 246 244 243 242 243 244 242 238 239 242 242 241 242 243 243 243 244 243 241 241 241 241 246 253 257 257 259